Location: Seven Kings
(51.5667°N, 0.1000°E)
Time: 03:39:34
(UTC+00:00)

Cosmos 1455 - Pass Details

Date: 29 October 2020
Orbit: 500 x 521 km, 82.5° (Epoch: 24 November)

Event Time Altitude Azimuth Distance (km) Brightness Sun altitude
Rises 19:28:39 0° 216° (SW) 2,606 6.1 -27.0°
Reaches altitude 10° 19:30:58 10° 229° (SW) 1,730 5.3 -27.4°
Maximum altitude 19:34:17 28° 290° (WNW) 985 4.2 -27.9°
Drops below altitude 10° 19:37:39 10° 351° (N) 1,755 5.1 -28.4°
Sets 19:40:02 0° 3° (N) 2,651 5.9 -28.8°
